Location: Newark
(48.4472°N, 1.4892°E)
Time: 12:25:23
(UTC+00:00)

Transit 4A - Pass Details

Date: 22 January 2021
Orbit: 866 x 978 km, 66.8° (Epoch: 01 March)

Event Time Altitude Azimuth Distance (km) Brightness Sun altitude
Rises 17:23:32 0° 146° (SE) 3,662 10.9 -7.8°
Reaches altitude 10° 17:28:34 10° 112° (ESE) 2,727 9.9 -8.6°
Maximum altitude 17:29:59 11° 99° (E) 2,671 9.8 -8.8°
Drops below altitude 10° 17:31:24 10° 86° (E) 2,729 9.7 -9.0°
Enters shadow 17:31:32 10° 85° (E) 2,741 9.7 -9.0°
